This is the latest recevied weather packets stored in our database for station/object KC5L-7. If no packets are shown the sender has not sent any weather packets the latest 1 day(s).
| Time | Temp. | Humidity | Pressure | Rain* | Wind** | Luminosity | Snow |
|---|---|---|---|---|---|---|---|
| 1778034380 | 27.78° C | 71% | 1004.3 hPa | 0 mm | 0 m/s | - | - |
| 1778033180 | 28.33° C | 69% | 1004.3 hPa | 0 mm | 0 m/s | - | - |
| 1778032580 | 28.33° C | 68% | 1003.9 hPa | 0 mm | 0 m/s | - | - |
| 1778031980 | 28.89° C | 68% | 1003.6 hPa | 0 mm | 0 m/s | - | - |
| 1778031380 | 28.89° C | 68% | 1003.5 hPa | 0 mm | 0 m/s | - | - |
| 1778030780 | 28.89° C | 66% | 1003.3 hPa | 0 mm | 0 m/s | - | - |
| 1778029580 | 28.89° C | 65% | 1003 hPa | 0 mm | 0 m/s | - | - |
| 1778028980 | 29.44° C | 63% | 1002.9 hPa | 0 mm | 0 m/s | - | - |
| 1778028380 | 29.44° C | 63% | 1002.8 hPa | 0 mm | 0 m/s | - | - |
| 1778027781 | 29.44° C | 63% | 1002.8 hPa | 0 mm | 0 m/s | - | - |
| 1778026580 | 29.44° C | 63% | 1002.8 hPa | 0 mm | 0 m/s | - | - |
| 1778025980 | 29.44° C | 63% | 1002.7 hPa | 0 mm | 0 m/s | - | - |
| 1778025380 | 29.44° C | 62% | 1002.7 hPa | 0 mm | 0 m/s | - | - |
| 1778024780 | 29.44° C | 63% | 1002.6 hPa | 0 mm | 0 m/s | - | - |
| 1778024180 | 30° C | 62% | 1002.7 hPa | 0 mm | 0 m/s | - | - |
| 1778023580 | 30° C | 62% | 1002.6 hPa | 0 mm | 0 m/s | - | - |
| 1778021780 | 30° C | 61% | 1002.7 hPa | 0 mm | 0 m/s | - | - |
| 1778020880 | 30° C | 62% | 1002.6 hPa | 0 mm | 0 m/s | - | - |
| 1778020280 | 29.44° C | 62% | 1002.6 hPa | 0 mm | 0 m/s | - | - |
| 1778019680 | 29.44° C | 62% | 1002.6 hPa | 0 mm | 0.45 m/s, 187° | - | - |
| 1778019080 | 29.44° C | 62% | 1002.8 hPa | 0 mm | 0.89 m/s, 194° | - | - |
| 1778018480 | 29.44° C | 62% | 1002.9 hPa | 0 mm | 0.89 m/s, 184° | - | - |
| 1778017880 | 29.44° C | 62% | 1003.1 hPa | 0 mm | 0.45 m/s, 188° | - | - |
| 1778017280 | 29.44° C | 63% | 1003.2 hPa | 0 mm | 0 m/s | - | - |
| 1778016680 | 29.44° C | 63% | 1003.4 hPa | 0 mm | 0.89 m/s, 184° | - | - |
* Rain latest hour (hover to see other rain measurements)
** Current wind speed in m/s (hover to see current wind gust speed)